CZ-6A DEB

Satellite information

Favourite Embed

Satellite Type and Status

DEBRISIN ORBIT

Key statistics

Satellite CZ-6A DEB at a glance.

Uptime

911

Days in orbit

Revolutions

≈ 14.2

Per day

Orbit

SSO

Sun Synchronous Orbit

Inclination

98.8

Latest

Satellite identification and parameters

Extended collection of information and parameters for CZ-6A DEB.

Object identification

Identified? True

Debris? True

Object name: CZ-6A DEB

International designator: 2022-151YJ

Object number (NORAD): 55536

Object ID (CCSDS): 55536

Country: PEOPLES REPUBLIC OF CHINA (PRC)

Current information (Y/N): Y

RCS size: SMALL

Orbital parameters

Period: 101.283 minutes

Inclination: 98.8028 deg

SMA: 7197.567 km

Apoapsis: 854.241 km

Periapsis: 784.624 km

RAAN: 135.8296 deg

Eccentricy: 0.0048361

Argument of periapsis: 41.9824 deg

Mean anomaly: 318.5044 deg

Mean motion: 14.21752985 rev/day

Mean motion (dot): 0.00005738 rev/day2

B* drag term: 0.0025965 1/REarth

Two-line elements (TLE)

Creation date: May 10, 2025, 2:32 a.m.

Reference frame: TEME

Reference center: EARTH

Epoch: May 9, 2025, 12:38 p.m. UTC

TLE line 0: 0 CZ-6A DEB

TLE line 1: 1 55536U 22151YJ 25129.52679652 .00005738 00000-0 25965-2 0 9998

TLE line 2: 2 55536 98.8028 135.8296 0048361 41.9824 318.5044 14.21752985122997

Live tracking on map

Real-time ground track for satellite CZ-6A DEB.

In-orbit conjunctions

A list of the most updated potential collisions computed for object CZ-6A DEB.

Target Orbit TCA Probability of collision Miss distance Type
SL-16 DEB LEO 2025-03-09 17:18:25 0.0002227403 96.0 (m) DEBRIS
CZ-4 DEB SSO 2025-03-03 00:33:43 0.0001070696 196.0 (m) DEBRIS
SL-3 DEB LEO 2024-11-18 09:42:55 0.0001043504 79.0 (m) DEBRIS
RADCAL LEO 2024-10-03 02:03:45 0.0001421721 805.0 (m) PAYLOAD
SL-3 R/B LEO 2024-06-15 17:31:44 0.0001406115 179.0 (m) ROCKET BODY

Associated space launch

Chinese satellite reported for atmospheric/ocean/environmental/spatial parameter research purposes, details TBD.

CZ-6A DEB was lifted into orbit during the mission ‘Long March 6A | Yunhai 3’, on board a Long March 6A space rocket.

The launch took place on Nov. 11, 2022, 10:52 p.m. from Launch Complex 9A.

For more information about the launch, click the button.

Launch to space Long March 6A | Yunhai 3
Long March 6A | Yunhai 3

Agency: N/A

Status: Launch Successful

Launch date: Nov. 11, 2022, 10:52 p.m. UTC

Rocket: Long March 6A

Launch pad: Launch Complex 9A

Location: Taiyuan Satellite Launch Center, People's Republic of China

...

Latest news about this satellite

There are no fresh news available about this satellite. Check back as we update our databases every day.


Newsletter sign-up

Weekly statistics, charts and insights to help you stay on top of the space industry.